Oceanus — WXAQ — position and weather

sailwx.info

Track history (hours):
 
Tides and Currents Weather Stations Pressure Air Temp Water Temp Dewpoint Dewpoint Depression Visibility Wind Speed Wind Dir Waves Ship Positions

Oceanographic research ship Oceanus (USA)

Detailed information on ship capabilities available from University of Delaware's Ocean Information Center and ARCUS's ALIAS (Arctic Logistics Information and Support) project.

Owner: Oregon State University, Newport, OR. More information available from US FCC via Universal Licensing System.

Last reported at 2017-Mar-23 13:33 UTC. Time now 2017-Mar-23 14:14 UTC.
Position N 37°45' W 122°38'.

Length 23 m; draft 7.2 m.

Type: Other ship. MMSI: 367977000.

Date/timePositionNaut miles runAvg speedWind from/ knotsBaromVisibWave heightAir tempDewpointWater temp
2017-Mar-23 13:33N 37°45' W 122°38'9 8.6
2017-Mar-23 12:33N 37°36' W 122°39'9 8.6
2017-Mar-23 11:33N 37°28' W 122°39'8 8.3
2017-Mar-23 10:32N 37°19' W 122°39'8 8.3
2017-Mar-23 09:32N 37°11' W 122°39'28 0.9
2017-Mar-22 00:29N 36°43' W 122°49'11 2.2
2017-Mar-21 19:18N 36°55' W 122°51'12 0.5
2017-Mar-20 16:31N 36°52' W 123°06'3 3.2
2017-Mar-20 15:32N 36°50' W 123°03'3 1.5
2017-Mar-20 13:25N 36°47' W 123°01'4 4.2
2017-Mar-20 12:32N 36°49' W 123°05'9 1.8
2017-Mar-20 07:21N 36°44' W 122°55'4 4.2
2017-Mar-20 06:31N 36°47' W 122°54'3 2.7
2017-Mar-20 05:31N 36°48' W 122°57'1 0.9
2017-Mar-20 04:33N 36°48' W 122°58'0 0.4
2017-Mar-20 03:32N 36°48' W 122°58'0 0.3
2017-Mar-20 02:33N 36°48' W 122°58'0 0.0
2017-Mar-20 01:33N 36°48' W 122°58'6 5.5
2017-Mar-20 00:30N 36°52' W 122°54'1011.0
2017-Mar-19 23:33N 37°00' W 122°45'3 3.3
2017-Mar-19 22:33N 37°02' W 122°42'0 0.0
2017-Mar-19 21:33N 37°02' W 122°42'1 1.0
2017-Mar-19 20:33N 37°03' W 122°43'1 1.0
2017-Mar-19 19:33N 37°02' W 122°42'0 0.1
2017-Mar-19 18:31N 37°02' W 122°42'0 0.2
2017-Mar-19 17:34N 37°02' W 122°42'5 5.3
2017-Mar-19 16:33N 36°59' W 122°48'2 1.7
2017-Mar-19 15:33N 36°58' W 122°49'4 3.6
2017-Mar-19 14:33N 36°55' W 122°46'4 3.6
2017-Mar-19 13:33N 36°52' W 122°43'4 3.7
2017-Mar-19 12:33N 36°53' W 122°47'4 4.1
2017-Mar-19 11:33N 36°55' W 122°52'4 4.2
2017-Mar-19 10:31N 36°56' W 122°58'3 3.4
2017-Mar-19 09:33N 36°56' W 123°02'4 3.4
2017-Mar-19 08:28N 36°54' W 122°58'4 3.4
2017-Mar-19 07:24N 36°53' W 122°54'3 3.6
2017-Mar-19 06:33N 36°55' W 122°51'3 3.5
2017-Mar-19 05:33N 36°58' W 122°48'3 3.1
2017-Mar-19 04:31N 36°60' W 122°45'1 0.7
2017-Mar-19 03:04N 36°59' W 122°46'2 4.1
2017-Mar-19 02:33N 36°57' W 122°47'4 4.2
2017-Mar-19 01:33N 36°54' W 122°51'2 2.3
2017-Mar-19 00:33N 36°53' W 122°53'0 0.0
2017-Mar-18 23:33N 36°53' W 122°53'0 0.0
2017-Mar-18 22:32N 36°53' W 122°53'0 0.1
2017-Mar-18 21:33N 36°53' W 122°53'0 0.2
2017-Mar-18 20:33N 36°53' W 122°53'1010.2
2017-Mar-18 19:33N 36°47' W 123°04'1110.6
2017-Mar-18 18:32N 36°41' W 123°15'8 7.8
2017-Mar-18 17:33N 36°36' W 123°23'0 0.1
2017-Mar-18 16:33N 36°36' W 123°23'0 0.0
2017-Mar-18 15:06N 36°36' W 123°23'0 0.0
2017-Mar-18 14:28N 36°36' W 123°23'0 0.1
2017-Mar-18 13:33N 36°36' W 123°23'1 0.9
2017-Mar-18 12:33N 36°37' W 123°22'3 3.1
2017-Mar-18 11:33N 36°37' W 123°18'3 3.2
2017-Mar-18 10:33N 36°38' W 123°14'0 0.2
2017-Mar-18 09:33N 36°38' W 123°14'3 2.8
2017-Mar-18 08:33N 36°39' W 123°18'3 2.6
2017-Mar-18 07:33N 36°39' W 123°21'3 2.6
2017-Mar-18 06:33N 36°39' W 123°24'3 2.8
2017-Mar-18 05:33N 36°38' W 123°27'1 1.1
2017-Mar-18 04:33N 36°38' W 123°26'2 2.4
2017-Mar-18 03:33N 36°37' W 123°24'1 0.7
2017-Mar-18 02:33N 36°36' W 123°23'0 0.0
2017-Mar-18 01:33N 36°36' W 123°23'0 0.0
2017-Mar-18 00:33N 36°36' W 123°23'0 0.0
2017-Mar-17 23:33N 36°36' W 123°23'0 0.2
2017-Mar-17 22:33N 36°36' W 123°23'1510.2
2017-Mar-17 21:06N 36°27' W 123°37'1010.2
2017-Mar-17 20:08N 36°20' W 123°46'610.3
2017-Mar-17 19:33N 36°16' W 123°52'7 6.6
2017-Mar-17 18:33N 36°12' W 123°58'0 0.0
2017-Mar-17 17:11N 36°12' W 123°58'0 0.0
2017-Mar-17 16:32N 36°12' W 123°58'0 0.0
2017-Mar-17 15:18N 36°12' W 123°58'0 0.2
2017-Mar-17 14:27N 36°12' W 123°58'1 1.4
2017-Mar-17 13:33N 36°11' W 123°56'6 4.2
2017-Mar-17 12:13N 36°17' W 123°57'5 2.0
2017-Mar-17 09:34N 36°12' W 123°57'34 3.3
2017-Mar-16 23:24N 35°54' W 124°33'22 0.8
2017-Mar-15 21:11N 35°41' W 124°55'95 9.8
2017-Mar-15 11:33N 36°39' W 123°22'1210.9
2017-Mar-15 10:30N 36°45' W 123°10'1011.1
2017-Mar-15 09:33N 36°52' W 122°60'1110.9
2017-Mar-15 08:31N 36°58' W 122°48'11 8.3
2017-Mar-15 07:11N 37°05' W 122°37'4 5.3
2017-Mar-15 06:22N 37°08' W 122°33'0 0.6
2017-Mar-15 05:30N 37°08' W 122°33'0 0.1
2017-Mar-15 04:31N 37°08' W 122°33'0 0.0
2017-Mar-15 03:15N 37°08' W 122°33'0 0.0
2017-Mar-15 02:33N 37°08' W 122°33'0 0.0
2017-Mar-15 01:34N 37°08' W 122°33'0 0.0
2017-Mar-15 00:32N 37°08' W 122°33'0 0.4
2017-Mar-14 23:32N 37°08' W 122°32'9 9.1
2017-Mar-14 22:33N 37°17' W 122°34'1111.3
2017-Mar-14 21:33N 37°28' W 122°37'1111.4
2017-Mar-14 20:33N 37°39' W 122°38'9 8.9
2017-Mar-14 19:33N 37°48' W 122°33'8 8.4
2017-Mar-14 18:33N 37°49' W 122°23'5 4.5
2017-Mar-14 17:33N 37°47' W 122°17'0 0.0
2017-Mar-14 16:33N 37°47' W 122°17'0 0.0
2017-Mar-14 15:33N 37°47' W 122°17'0 0.0
2017-Mar-14 14:33N 37°47' W 122°17'0 0.0
2017-Mar-14 13:33N 37°47' W 122°17'0 0.0
2017-Mar-14 12:30N 37°47' W 122°17'0 0.0
2017-Mar-14 11:33N 37°47' W 122°17'0 0.0
2017-Mar-14 10:33N 37°47' W 122°17'0 0.0
2017-Mar-14 09:33N 37°47' W 122°17'0 0.0
2017-Mar-14 08:33N 37°47' W 122°17'0 0.0
2017-Mar-14 07:33N 37°47' W 122°17'0 0.0
2017-Mar-14 06:33N 37°47' W 122°17'0 0.0
2017-Mar-14 05:33N 37°47' W 122°17'0 0.0
2017-Mar-14 04:33N 37°47' W 122°17'0 0.0
2017-Mar-14 03:33N 37°47' W 122°17'0 0.0
2017-Mar-14 02:33N 37°47' W 122°17'0 0.0
2017-Mar-14 01:33N 37°47' W 122°17'0 0.0
2017-Mar-14 00:33N 37°47' W 122°17'0 0.0
2017-Mar-13 23:33N 37°47' W 122°17'0 0.0
2017-Mar-13 22:33N 37°47' W 122°17'0 0.0
2017-Mar-13 21:33N 37°47' W 122°17'0 0.0
2017-Mar-13 20:33N 37°47' W 122°17'0 0.0
2017-Mar-13 19:32N 37°47' W 122°17'0 0.0
2017-Mar-13 18:32N 37°47' W 122°17'0 0.0
2017-Mar-13 17:29N 37°47' W 122°17'0 0.0
2017-Mar-13 16:32N 37°47' W 122°17'0 0.0
2017-Mar-13 15:32N 37°47' W 122°17'0 0.0
2017-Mar-13 14:32N 37°47' W 122°17'  
Track history (hours):
 
Tides and Currents Weather Stations Pressure Air Temp Water Temp Dewpoint Dewpoint Depression Visibility Wind Speed Wind Dir Waves Ship Positions

Oceanographic research ship Oceanus (USA)

Detailed information on ship capabilities available from University of Delaware's Ocean Information Center and ARCUS's ALIAS (Arctic Logistics Information and Support) project.

Owner: Oregon State University, Newport, OR. More information available from US FCC via Universal Licensing System.

Last reported at 2017-Mar-23 13:33 UTC. Time now 2017-Mar-23 14:14 UTC.
Position N 37°45' W 122°38'.

Length 23 m; draft 7.2 m.

Type: Other ship. MMSI: 367977000.

Date/timePositionNaut miles runAvg speedWind from/ knotsBaromVisibWave heightAir tempDewpointWater temp
2017-Mar-23 13:33N 37°45' W 122°38'9 8.6
2017-Mar-23 12:33N 37°36' W 122°39'9 8.6
2017-Mar-23 11:33N 37°28' W 122°39'8 8.3
2017-Mar-23 10:32N 37°19' W 122°39'8 8.3
2017-Mar-23 09:32N 37°11' W 122°39'28 0.9
2017-Mar-22 00:29N 36°43' W 122°49'11 2.2
2017-Mar-21 19:18N 36°55' W 122°51'12 0.5
2017-Mar-20 16:31N 36°52' W 123°06'3 3.2
2017-Mar-20 15:32N 36°50' W 123°03'3 1.5
2017-Mar-20 13:25N 36°47' W 123°01'4 4.2
2017-Mar-20 12:32N 36°49' W 123°05'9 1.8
2017-Mar-20 07:21N 36°44' W 122°55'4 4.2
2017-Mar-20 06:31N 36°47' W 122°54'3 2.7
2017-Mar-20 05:31N 36°48' W 122°57'1 0.9
2017-Mar-20 04:33N 36°48' W 122°58'0 0.4
2017-Mar-20 03:32N 36°48' W 122°58'0 0.3
2017-Mar-20 02:33N 36°48' W 122°58'0 0.0
2017-Mar-20 01:33N 36°48' W 122°58'6 5.5
2017-Mar-20 00:30N 36°52' W 122°54'1011.0
2017-Mar-19 23:33N 37°00' W 122°45'3 3.3
2017-Mar-19 22:33N 37°02' W 122°42'0 0.0
2017-Mar-19 21:33N 37°02' W 122°42'1 1.0
2017-Mar-19 20:33N 37°03' W 122°43'1 1.0
2017-Mar-19 19:33N 37°02' W 122°42'0 0.1
2017-Mar-19 18:31N 37°02' W 122°42'0 0.2
2017-Mar-19 17:34N 37°02' W 122°42'5 5.3
2017-Mar-19 16:33N 36°59' W 122°48'2 1.7
2017-Mar-19 15:33N 36°58' W 122°49'4 3.6
2017-Mar-19 14:33N 36°55' W 122°46'4 3.6
2017-Mar-19 13:33N 36°52' W 122°43'4 3.7
2017-Mar-19 12:33N 36°53' W 122°47'4 4.1
2017-Mar-19 11:33N 36°55' W 122°52'4 4.2
2017-Mar-19 10:31N 36°56' W 122°58'3 3.4
2017-Mar-19 09:33N 36°56' W 123°02'4 3.4
2017-Mar-19 08:28N 36°54' W 122°58'4 3.4
2017-Mar-19 07:24N 36°53' W 122°54'3 3.6
2017-Mar-19 06:33N 36°55' W 122°51'3 3.5
2017-Mar-19 05:33N 36°58' W 122°48'3 3.1
2017-Mar-19 04:31N 36°60' W 122°45'1 0.7
2017-Mar-19 03:04N 36°59' W 122°46'2 4.1
2017-Mar-19 02:33N 36°57' W 122°47'4 4.2
2017-Mar-19 01:33N 36°54' W 122°51'2 2.3
2017-Mar-19 00:33N 36°53' W 122°53'0 0.0
2017-Mar-18 23:33N 36°53' W 122°53'0 0.0
2017-Mar-18 22:32N 36°53' W 122°53'0 0.1
2017-Mar-18 21:33N 36°53' W 122°53'0 0.2
2017-Mar-18 20:33N 36°53' W 122°53'1010.2
2017-Mar-18 19:33N 36°47' W 123°04'1110.6
2017-Mar-18 18:32N 36°41' W 123°15'8 7.8
2017-Mar-18 17:33N 36°36' W 123°23'0 0.1
2017-Mar-18 16:33N 36°36' W 123°23'0 0.0
2017-Mar-18 15:06N 36°36' W 123°23'0 0.0
2017-Mar-18 14:28N 36°36' W 123°23'0 0.1
2017-Mar-18 13:33N 36°36' W 123°23'1 0.9
2017-Mar-18 12:33N 36°37' W 123°22'3 3.1
2017-Mar-18 11:33N 36°37' W 123°18'3 3.2
2017-Mar-18 10:33N 36°38' W 123°14'0 0.2
2017-Mar-18 09:33N 36°38' W 123°14'3 2.8
2017-Mar-18 08:33N 36°39' W 123°18'3 2.6
2017-Mar-18 07:33N 36°39' W 123°21'3 2.6
2017-Mar-18 06:33N 36°39' W 123°24'3 2.8
2017-Mar-18 05:33N 36°38' W 123°27'1 1.1
2017-Mar-18 04:33N 36°38' W 123°26'2 2.4
2017-Mar-18 03:33N 36°37' W 123°24'1 0.7
2017-Mar-18 02:33N 36°36' W 123°23'0 0.0
2017-Mar-18 01:33N 36°36' W 123°23'0 0.0
2017-Mar-18 00:33N 36°36' W 123°23'0 0.0
2017-Mar-17 23:33N 36°36' W 123°23'0 0.2
2017-Mar-17 22:33N 36°36' W 123°23'1510.2
2017-Mar-17 21:06N 36°27' W 123°37'1010.2
2017-Mar-17 20:08N 36°20' W 123°46'610.3
2017-Mar-17 19:33N 36°16' W 123°52'7 6.6
2017-Mar-17 18:33N 36°12' W 123°58'0 0.0
2017-Mar-17 17:11N 36°12' W 123°58'0 0.0
2017-Mar-17 16:32N 36°12' W 123°58'0 0.0
2017-Mar-17 15:18N 36°12' W 123°58'0 0.2
2017-Mar-17 14:27N 36°12' W 123°58'1 1.4
2017-Mar-17 13:33N 36°11' W 123°56'6 4.2
2017-Mar-17 12:13N 36°17' W 123°57'5 2.0
2017-Mar-17 09:34N 36°12' W 123°57'34 3.3
2017-Mar-16 23:24N 35°54' W 124°33'22 0.8
2017-Mar-15 21:11N 35°41' W 124°55'95 9.8
2017-Mar-15 11:33N 36°39' W 123°22'1210.9
2017-Mar-15 10:30N 36°45' W 123°10'1011.1
2017-Mar-15 09:33N 36°52' W 122°60'1110.9
2017-Mar-15 08:31N 36°58' W 122°48'11 8.3
2017-Mar-15 07:11N 37°05' W 122°37'4 5.3
2017-Mar-15 06:22N 37°08' W 122°33'0 0.6
2017-Mar-15 05:30N 37°08' W 122°33'0 0.1
2017-Mar-15 04:31N 37°08' W 122°33'0 0.0
2017-Mar-15 03:15N 37°08' W 122°33'0 0.0
2017-Mar-15 02:33N 37°08' W 122°33'0 0.0
2017-Mar-15 01:34N 37°08' W 122°33'0 0.0
2017-Mar-15 00:32N 37°08' W 122°33'0 0.4
2017-Mar-14 23:32N 37°08' W 122°32'9 9.1
2017-Mar-14 22:33N 37°17' W 122°34'1111.3
2017-Mar-14 21:33N 37°28' W 122°37'1111.4
2017-Mar-14 20:33N 37°39' W 122°38'9 8.9
2017-Mar-14 19:33N 37°48' W 122°33'8 8.4
2017-Mar-14 18:33N 37°49' W 122°23'5 4.5
2017-Mar-14 17:33N 37°47' W 122°17'0 0.0
2017-Mar-14 16:33N 37°47' W 122°17'0 0.0
2017-Mar-14 15:33N 37°47' W 122°17'0 0.0
2017-Mar-14 14:33N 37°47' W 122°17'0 0.0
2017-Mar-14 13:33N 37°47' W 122°17'0 0.0
2017-Mar-14 12:30N 37°47' W 122°17'0 0.0
2017-Mar-14 11:33N 37°47' W 122°17'0 0.0
2017-Mar-14 10:33N 37°47' W 122°17'0 0.0
2017-Mar-14 09:33N 37°47' W 122°17'0 0.0
2017-Mar-14 08:33N 37°47' W 122°17'0 0.0
2017-Mar-14 07:33N 37°47' W 122°17'0 0.0
2017-Mar-14 06:33N 37°47' W 122°17'0 0.0
2017-Mar-14 05:33N 37°47' W 122°17'0 0.0
2017-Mar-14 04:33N 37°47' W 122°17'0 0.0
2017-Mar-14 03:33N 37°47' W 122°17'0 0.0
2017-Mar-14 02:33N 37°47' W 122°17'0 0.0
2017-Mar-14 01:33N 37°47' W 122°17'0 0.0
2017-Mar-14 00:33N 37°47' W 122°17'0 0.0
2017-Mar-13 23:33N 37°47' W 122°17'0 0.0
2017-Mar-13 22:33N 37°47' W 122°17'0 0.0
2017-Mar-13 21:33N 37°47' W 122°17'0 0.0
2017-Mar-13 20:33N 37°47' W 122°17'0 0.0
2017-Mar-13 19:32N 37°47' W 122°17'0 0.0
2017-Mar-13 18:32N 37°47' W 122°17'0 0.0
2017-Mar-13 17:29N 37°47' W 122°17'0 0.0
2017-Mar-13 16:32N 37°47' W 122°17'0 0.0
2017-Mar-13 15:32N 37°47' W 122°17'0 0.0
2017-Mar-13 14:32N 37°47' W 122°17'  

Dump ship's entire track history